Regional Weather Roundup
Issued by NWS

Home | Current Version | Previous Version | Graphics & Text | Print | Product List | Glossary On
Versions: 1 2 3 4 5 6 7 8 9 10 11 12 13 14 15 16 17 18 19 20 21 22 23 24 25 26 27
000
ASUS45 KBOU 230807
RWRCO

WEATHER ROUNDUP FOR COLORADO
NATIONAL WEATHER SERVICE DENVER/BOULDER CO
200 AM MDT TUE AUG 23 2016

NOTE: "FAIR" INDICATES FEW OR NO CLOUDS BELOW 12000 FEET WITH NO
SIGNIFICANT WEATHER AND/OR OBSTRUCTIONS TO VISIBILITY.

COZ001>005-013-030-031-230900-
...NORTHWEST COLORADO...

CITY           SKY/WX    TMP DP  RH WIND       PRES   REMARKS
CRAIG          FAIR      47  41  80 CALM      30.16R
HAYDEN         FAIR      54  36  50 CALM      30.18R
MEEKER         FAIR      51  41  68 NE3       30.18S
MOUNT WERNER   NOT AVBL
STEAMBOAT SPGS FAIR      48  38  66 CALM      30.19S
WALDEN         FAIR      37  34  87 E9        30.25S
$$

COZ006>008-011-230900-
...WEST CENTRAL VALLEYS...

CITY           SKY/WX    TMP DP  RH WIND       PRES   REMARKS
GRAND JUNCTION FAIR      65  48  54 NE3       30.11S
MONTROSE       FAIR      54  45  71 S7        30.20S
EAGLE          FAIR      52  43  71 E6        30.22S
RIFLE          FAIR      55  48  77 E7        30.16S
DELTA          NOT AVBL
NUCLA          FAIR      55  50  82 E9        30.23S
$$

COZ017>023-064>068-230900-
...SOUTHWEST COLORADO...

CITY           SKY/WX    TMP DP  RH WIND       PRES   REMARKS
DURANGO        CLOUDY    55  52  89 CALM      30.23F
CORTEZ         CLOUDY    57  51  80 S3        30.18F
PAGOSA SPRINGS CLOUDY    51  50  98 CALM      30.30F
TELLURIDE      FAIR      47  45  93 CALM      30.39S
WOLF CREEK PAS MOCLDY    37  37 100 SW15G21   30.53F
$$

COZ009-010-012-014-032>034-037-058>063-230900-
...CENTRAL COLORADO...

CITY           SKY/WX    TMP DP  RH WIND       PRES   REMARKS
ASPEN          FAIR      48  41  76 SW7       30.27S
BUENA VISTA    FAIR      45  36  71 CALM      30.25F
COPPER MTN     FAIR      45  32  61 W6        30.50S
BERTHOUD PASS  FAIR      36  23  60 N18       30.50F
COTTONWOOD PAS FAIR      52  34  50 W8        30.35F
GUNNISON       MOCLDY    46  43  87 NE3       30.33S
KREMMLING      FAIR      43  34  70 CALM      30.25R
LEADVILLE      CLOUDY    41  35  79 NE7       30.35F
MONARCH PASS   FAIR      37  34  87 W14       30.58F
SALIDA         FAIR      56  42  59 SW6       30.29F
SUNLIGHT       FAIR      45  41  87 NE3       30.46F
WILKERSON PASS NOT AVBL
$$

COZ069>075-230900-
...SAN LUIS VALLEY/SANGRE DE CRISTO MOUNTAINS...

CITY           SKY/WX    TMP DP  RH WIND       PRES   REMARKS
ALAMOSA        FAIR      48  41  76 S7        30.25F
LA VETA PASS   FAIR      43  37  81 S13G20    30.35S
SAGUACHE       FAIR      50  41  71 NW13      30.28S
$$

COZ035-036-038>040-230900-
...NORTHERN COLORADO FRONT RANGE...

CITY           SKY/WX    TMP DP  RH WIND       PRES   REMARKS
DENVER INTL AP FAIR      65  40  39 SW14      29.96S
DMNS CITY PARK   N/A     65  42  43 S6        29.96F
AURORA         PTCLDY    62  41  46 S7        29.99S
FRONT RANGE AP NOT AVBL
ERIE MUNI ARPT FAIR      63  36  36 CALM      29.93F
BOULDER MUN AP FAIR      73  34  23 SW7       29.94F
CENTENNIAL     FAIR      65  38  36 SW6       30.00S
BROOMFIELD     FAIR      68  34  28 S3        29.98S
FORT COLLINS   FAIR      63  45  51 NE3       29.92F
LONGMONT       FAIR      61  41  48 W3        29.95S
$$

COZ041-046-047-076>085-087-088-230900-
...PIKES PEAK/PALMER DIVIDE AND SOUTHERN FOOTHILLS...

CITY           SKY/WX    TMP DP  RH WIND       PRES   REMARKS
COLO. SPRINGS  FAIR      65  39  38 NW3       30.05S
A. F. ACADEMY  FAIR      63  38  40 VRB7      30.06S
SCHRIEVER AFB  NOT AVBL
ELLICOTT       NOT AVBL
FALCON         FAIR      62  36  37 NW10      30.09S
FORT CARSON    FAIR      67  37  33 CALM      30.01S
LIMON          FAIR      53  38  56 NW3       29.96S
MONUMENT HILL  FAIR      52  36  54 W8        30.11S
TRINIDAD       FAIR      62  44  51 W8        30.06R
$$

COZ042>045-048>051-090-091-230900-
...NORTHEAST COLORADO...

CITY           SKY/WX    TMP DP  RH WIND       PRES   REMARKS
GREELEY ARPT   FAIR      54  46  76 N5        29.91F
AKRON          FAIR      57  50  77 SE5       29.90S
BURLINGTON     FAIR      68  55  63 S16       29.88S
WRAY           FAIR      66  59  77 E13       29.87S
STERLING       FAIR      57  54  88 W6        29.86S
HOLYOKE        FAIR      68  59  73 SE14G21   29.87S
FORT MORGAN    FAIR      56  42  58 SW5       29.89S
$$

COZ086-089-092>099-230900-
...SOUTHEAST COLORADO...

CITY           SKY/WX    TMP DP  RH WIND       PRES   REMARKS
PUEBLO         FAIR      72  42  34 NW17      29.94S
LA JUNTA       FAIR      69  47  45 SW17      29.93R
LAMAR          FAIR      71  56  58 SW15      29.87S
SPRINGFIELD      N/A     66  57  72 S10       29.98F
$$




USA.gov is the U.S. government's official web portal to all federal, state and local government web resources and services.